YAOGAN-50 02 DEB

基本信息
目录编号:
100578
目录名称:
YAOGAN-50 02 DEB
国际标识:
2026-051S
轨道中心:
EARTH
物体状态:
在轨
发射日期:
--
轨道信息
数据来源: 国际轨道数据
星历时间: 2026-09-04T04:32:04+0800
半长轴: 7193.59km
偏心率: 0.0187139
轨道倾角: 141.929°
近地点辐角: 73.743°
升交点赤经: 1.629°
平近点角: 288.381°
近地点: 680.832km
远地点: 950.074km
周期: 101.199分钟
每日圈数: 14.229326
详细信息
轨道高度:
LEO
数据来源:
AOE Integration Group
参考系:
TEME
时间系统:
UTC
历元类型:
SGP4
2D轨道图
3D轨道图
轨道高度分析图
轨道倾角分析图
轨道综合分析图
查看轨道综合分析图